| time (UTC) | temp C | wind direction | speed KPH | gust KPH | rain 1hr cm | rain 24hr cm | rain mn cm | humidity % | barometer mb |
| 20260503180503 | 15 | 220 | 8.0 | 19.3 | 0.00 | 0.00 | 0.00 | 76 | 1012.2 |
| 20260503180004 | 15 | 221 | 9.7 | 22.5 | 0.00 | 0.00 | 0.00 | 77 | 1012.3 |
| 20260503175525 | 14 | 226 | 9.7 | 22.5 | 0.00 | 0.00 | 0.00 | 77 | 1012.4 |
| 20260503175003 | 14 | 222 | 11.3 | 20.9 | 0.00 | 0.00 | 0.00 | 78 | 1012.3 |
| 20260503174503 | 14 | 217 | 11.3 | 24.1 | 0.00 | 0.00 | 0.00 | 77 | 1012.3 |
| 20260503174003 | 14 | 212 | 9.7 | 24.1 | 0.00 | 0.00 | 0.00 | 76 | 1012.3 |
| 20260503173503 | 14 | 204 | 8.0 | 19.3 | 0.00 | 0.00 | 0.00 | 76 | 1012.1 |
| 20260503173004 | 14 | 216 | 8.0 | 17.7 | 0.00 | 0.00 | 0.00 | 77 | 1012.0 |
| 20260503172504 | 14 | 209 | 8.0 | 17.7 | 0.00 | 0.00 | 0.00 | 77 | 1012.0 |
| 20260503172004 | 14 | 201 | 8.0 | 17.7 | 0.00 | 0.00 | 0.00 | 78 | 1012.0 |
| 20260503171503 | 14 | 219 | 8.0 | 24.1 | 0.00 | 0.00 | 0.00 | 79 | 1012.0 |
| 20260503171024 | 13 | 221 | 11.3 | 24.1 | 0.00 | 0.00 | 0.00 | 79 | 1012.0 |
| 20260503170525 | 13 | 218 | 11.3 | 22.5 | 0.00 | 0.00 | 0.00 | 78 | 1011.9 |
| 20260503151003 | 12 | 219 | 4.8 | 16.1 | 0.00 | 0.00 | 0.00 | 81 | 1011.6 |
| 20260503150524 | 12 | 209 | 4.8 | 9.7 | 0.00 | 0.00 | 0.00 | 82 | 1011.5 |
| 20260503131004 | 11 | 201 | 6.4 | 11.3 | 0.00 | 0.00 | 0.00 | 83 | 1010.1 |
| 20260503130525 | 11 | 205 | 4.8 | 11.3 | 0.00 | 0.00 | 0.00 | 83 | 1010.2 |
| 20260503110504 | 11 | 217 | 8.0 | 19.3 | 0.00 | 0.00 | 0.00 | 82 | 1010.2 |
| 20260503090504 | 11 | 203 | 8.0 | 17.7 | 0.00 | 0.00 | 0.00 | 83 | 1010.5 |
| 20260503081524 | 12 | 212 | 9.7 | 17.7 | 0.00 | 0.00 | 0.00 | 84 | 1010.8 |
| 20260503081025 | 12 | 223 | 8.0 | 19.3 | 0.00 | 0.00 | 0.00 | 84 | 1010.9 |
| 20260503080504 | 12 | 227 | 4.8 | 12.9 | 0.00 | 0.00 | 0.00 | 84 | 1011.0 |
| 20260503072503 | 12 | 209 | 4.8 | 11.3 | 0.00 | 0.00 | 0.00 | 84 | 1011.0 |
| 20260503072003 | 12 | 199 | 4.8 | 11.3 | 0.00 | 0.00 | 0.00 | 84 | 1011.0 |
| 20260503071504 | 12 | 200 | 3.2 | 9.7 | 0.00 | 0.00 | 0.00 | 84 | 1011.0 |
| 20260503071004 | 12 | 207 | 3.2 | 9.7 | 0.00 | 0.00 | 0.00 | 84 | 1011.1 |
| 20260503070503 | 12 | 205 | 4.8 | 11.3 | 0.00 | 0.00 | 0.00 | 84 | 1011.1 |
| 20260503055003 | 12 | 196 | 6.4 | 12.9 | 0.00 | 0.00 | 0.00 | 83 | 1011.5 |
| 20260503054504 | 12 | 195 | 4.8 | 16.1 | 0.00 | 0.00 | 0.00 | 83 | 1011.6 |
| 20260503054003 | 12 | 206 | 6.4 | 16.1 | 0.00 | 0.00 | 0.00 | 83 | 1011.6 |
| 20260503053504 | 12 | 208 | 6.4 | 14.5 | 0.00 | 0.00 | 0.00 | 83 | 1011.6 |
| 20260503053004 | 12 | 212 | 6.4 | 16.1 | 0.00 | 0.00 | 0.00 | 83 | 1011.6 |
| 20260503052503 | 12 | 215 | 6.4 | 16.1 | 0.00 | 0.00 | 0.00 | 83 | 1011.7 |
| 20260503052025 | 12 | 208 | 4.8 | 11.3 | 0.00 | 0.00 | 0.00 | 83 | 1011.7 |
| 20260503051504 | 12 | 203 | 4.8 | 11.3 | 0.00 | 0.00 | 0.00 | 83 | 1011.8 |
| 20260503051003 | 12 | 212 | 4.8 | 11.3 | 0.00 | 0.00 | 0.00 | 82 | 1011.6 |
| 20260503050504 | 12 | 209 | 4.8 | 9.7 | 0.00 | 0.00 | 0.00 | 82 | 1011.8 |
| 20260503050004 | 12 | 198 | 4.8 | 12.9 | 0.00 | 0.00 | 0.00 | 83 | 1011.6 |
| 20260503045504 | 12 | 198 | 6.4 | 12.9 | 0.00 | 0.00 | 0.00 | 83 | 1011.6 |
| 20260503045024 | 12 | 219 | 6.4 | 12.9 | 0.00 | 0.00 | 0.00 | 83 | 1011.6 |
| 20260503044525 | 12 | 225 | 6.4 | 12.9 | 0.00 | 0.00 | 0.00 | 83 | 1011.5 |
| 20260503044003 | 12 | 206 | 3.2 | 12.9 | 0.00 | 0.00 | 0.00 | 82 | 1011.5 |
| 20260503043503 | 12 | 223 | 1.6 | 8.0 | 0.00 | 0.00 | 0.00 | 83 | 1011.5 |
| 20260503043004 | 12 | 223 | 3.2 | 9.7 | 0.00 | 0.00 | 0.00 | 83 | 1011.5 |
| 20260503042504 | 12 | 217 | 4.8 | 14.5 | 0.00 | 0.00 | 0.00 | 82 | 1011.4 |
| 20260503042004 | 12 | 218 | 6.4 | 14.5 | 0.00 | 0.00 | 0.00 | 82 | 1011.3 |
| 20260503041505 | 12 | 210 | 6.4 | 14.5 | 0.00 | 0.00 | 0.00 | 82 | 1011.4 |
| 20260503041004 | 12 | 213 | 4.8 | 14.5 | 0.00 | 0.00 | 0.00 | 83 | 1011.3 |
| 20260503040525 | 12 | 234 | 4.8 | 12.9 | 0.00 | 0.00 | 0.00 | 82 | 1011.2 |
| 20260503040004 | 12 | 229 | 4.8 | 14.5 | 0.00 | 0.00 | 0.00 | 82 | 1011.2 |
| 20260503035504 | 12 | 225 | 6.4 | 16.1 | 0.00 | 0.00 | 0.00 | 82 | 1011.2 |
| 20260503035004 | 12 | 230 | 8.0 | 20.9 | 0.00 | 0.00 | 0.00 | 82 | 1011.2 |
| 20260503034503 | 12 | 230 | 6.4 | 20.9 | 0.00 | 0.00 | 0.00 | 82 | 1011.2 |
| 20260503034004 | 12 | 228 | 6.4 | 14.5 | 0.00 | 0.00 | 0.00 | 82 | 1011.2 |
| 20260503033504 | 12 | 235 | 6.4 | 16.1 | 0.00 | 0.00 | 0.00 | 82 | 1011.0 |
| 20260503033004 | 12 | 236 | 6.4 | 16.1 | 0.00 | 0.00 | 0.00 | 82 | 1010.9 |
| 20260503032503 | 12 | 213 | 6.4 | 16.1 | 0.00 | 0.00 | 0.00 | 82 | 1010.9 |
| 20260503032003 | 12 | 212 | 6.4 | 14.5 | 0.00 | 0.00 | 0.00 | 82 | 1010.8 |
| 20260503031503 | 12 | 233 | 6.4 | 12.9 | 0.00 | 0.00 | 0.00 | 81 | 1010.7 |
| 20260503031004 | 12 | 237 | 6.4 | 14.5 | 0.00 | 0.00 | 0.00 | 81 | 1010.6 |
| 20260503030504 | 12 | 244 | 8.0 | 19.3 | 0.00 | 0.00 | 0.00 | 81 | 1010.6 |
| 20260503030004 | 12 | 236 | 6.4 | 19.3 | 0.00 | 0.00 | 0.00 | 80 | 1010.5 |
| 20260503025503 | 12 | 227 | 4.8 | 12.9 | 0.00 | 0.00 | 0.00 | 80 | 1010.5 |
| 20260503025004 | 12 | 225 | 4.8 | 12.9 | 0.00 | 0.00 | 0.00 | 80 | 1010.6 |
| 20260503024504 | 12 | 232 | 6.4 | 16.1 | 0.00 | 0.00 | 0.00 | 80 | 1010.5 |
| 20260503024004 | 12 | 238 | 8.0 | 16.1 | 0.00 | 0.00 | 0.00 | 79 | 1010.6 |
| 20260503023504 | 12 | 240 | 6.4 | 12.9 | 0.00 | 0.00 | 0.00 | 79 | 1010.6 |
| 20260503023004 | 13 | 241 | 8.0 | 19.3 | 0.00 | 0.00 | 0.00 | 79 | 1010.4 |
| 20260503022504 | 13 | 242 | 11.3 | 19.3 | 0.00 | 0.00 | 0.00 | 78 | 1010.4 |
| 20260503022004 | 13 | 245 | 11.3 | 20.9 | 0.00 | 0.00 | 0.00 | 78 | 1010.4 |
| 20260503021504 | 13 | 242 | 9.7 | 20.9 | 0.00 | 0.00 | 0.00 | 77 | 1010.5 |
| 20260503021004 | 13 | 240 | 9.7 | 17.7 | 0.00 | 0.00 | 0.00 | 77 | 1010.5 |
| 20260503020503 | 13 | 243 | 9.7 | 17.7 | 0.00 | 0.00 | 0.00 | 76 | 1010.5 |
| 20260503020003 | 13 | 250 | 9.7 | 19.3 | 0.00 | 0.00 | 0.00 | 75 | 1010.5 |
| 20260503015504 | 13 | 253 | 9.7 | 19.3 | 0.00 | 0.00 | 0.00 | 75 | 1010.4 |
| 20260503015004 | 13 | 250 | 8.0 | 16.1 | 0.00 | 0.00 | 0.00 | 75 | 1010.4 |
| 20260503014504 | 14 | 245 | 9.7 | 20.9 | 0.00 | 0.00 | 0.00 | 74 | 1010.5 |
| 20260503014003 | 14 | 238 | 9.7 | 20.9 | 0.00 | 0.00 | 0.00 | 74 | 1010.5 |
| 20260503013503 | 14 | 238 | 9.7 | 20.9 | 0.00 | 0.00 | 0.00 | 73 | 1010.5 |
| 20260503013004 | 15 | 244 | 8.0 | 20.9 | 0.00 | 0.00 | 0.00 | 73 | 1010.4 |
| 20260503012504 | 15 | 246 | 6.4 | 16.1 | 0.00 | 0.00 | 0.00 | 73 | 1010.5 |
| 20260503012004 | 15 | 250 | 8.0 | 17.7 | 0.00 | 0.00 | 0.00 | 72 | 1010.5 |
| 20260503011504 | 15 | 246 | 8.0 | 17.7 | 0.00 | 0.00 | 0.00 | 72 | 1010.6 |
| 20260503011004 | 15 | 235 | 9.7 | 22.5 | 0.00 | 0.00 | 0.00 | 72 | 1010.5 |
| 20260503010503 | 15 | 230 | 9.7 | 22.5 | 0.00 | 0.00 | 0.00 | 71 | 1010.5 |
| 20260503010003 | 15 | 222 | 9.7 | 17.7 | 0.00 | 0.00 | 0.00 | 71 | 1010.5 |
| 20260503005504 | 15 | 229 | 9.7 | 20.9 | 0.00 | 0.00 | 0.00 | 70 | 1010.6 |
| 20260503005025 | 16 | 235 | 9.7 | 20.9 | 0.00 | 0.00 | 0.00 | 70 | 1010.5 |
| 20260503004503 | 16 | 227 | 8.0 | 19.3 | 0.00 | 0.00 | 0.00 | 69 | 1010.6 |
| 20260503004003 | 16 | 221 | 8.0 | 19.3 | 0.00 | 0.00 | 0.00 | 69 | 1010.5 |
| 20260503003503 | 16 | 222 | 9.7 | 16.1 | 0.00 | 0.00 | 0.00 | 70 | 1010.5 |
| 20260503003024 | 16 | 216 | 12.9 | 25.7 | 0.00 | 0.00 | 0.00 | 70 | 1010.5 |
| 20260503002503 | 16 | 218 | 14.5 | 25.7 | 0.00 | 0.00 | 0.00 | 69 | 1010.5 |
| 20260503002004 | 16 | 230 | 11.3 | 22.5 | 0.00 | 0.00 | 0.00 | 69 | 1010.5 |
| 20260503001504 | 16 | 227 | 9.7 | 22.5 | 0.00 | 0.00 | 0.00 | 69 | 1010.5 |
| 20260503001025 | 16 | 225 | 12.9 | 24.1 | 0.00 | 0.00 | 0.00 | 69 | 1010.6 |
| 20260503000503 | 16 | 231 | 12.9 | 30.6 | 0.00 | 0.00 | 0.00 | 68 | 1010.5 |
| 20260503000024 | 16 | 226 | 11.3 | 30.6 | 0.00 | 0.00 | 0.00 | 69 | 1010.6 |
| 20260502235504 | 16 | 220 | 12.9 | 35.4 | 0.00 | 0.00 | 0.00 | 68 | 1010.6 |
| 20260502235025 | 16 | 221 | 12.9 | 35.4 | 0.00 | 0.00 | 0.00 | 68 | 1010.5 |
| 20260502234504 | 16 | 223 | 12.9 | 29.0 | 0.00 | 0.00 | 0.00 | 67 | 1010.7 |
| 20260502234004 | 16 | 222 | 16.1 | 29.0 | 0.00 | 0.00 | 0.00 | 68 | 1010.7 |
| 20260502233504 | 17 | 223 | 14.5 | 27.4 | 0.00 | 0.00 | 0.00 | 67 | 1010.7 |
| 20260502233003 | 17 | 220 | 14.5 | 29.0 | 0.00 | 0.00 | 0.00 | 68 | 1010.8 |
| 20260502232524 | 17 | 224 | 12.9 | 29.0 | 0.00 | 0.00 | 0.00 | 67 | 1010.8 |
| 20260502232004 | 17 | 240 | 11.3 | 29.0 | 0.00 | 0.00 | 0.00 | 68 | 1010.9 |
| 20260502231525 | 17 | 241 | 11.3 | 29.0 | 0.00 | 0.00 | 0.00 | 67 | 1011.0 |
| 20260502231003 | 17 | 224 | 11.3 | 24.1 | 0.00 | 0.00 | 0.00 | 66 | 1011.0 |
| 20260502230504 | 17 | 217 | 12.9 | 25.7 | 0.00 | 0.00 | 0.00 | 67 | 1011.1 |
| 20260502230004 | 17 | 219 | 11.3 | 25.7 | 0.00 | 0.00 | 0.00 | 66 | 1011.2 |
| 20260502225503 | 17 | 222 | 11.3 | 22.5 | 0.00 | 0.00 | 0.00 | 66 | 1011.3 |
| 20260502225003 | 17 | 233 | 12.9 | 24.1 | 0.00 | 0.00 | 0.00 | 66 | 1011.3 |
| 20260502224525 | 17 | 242 | 12.9 | 27.4 | 0.00 | 0.00 | 0.00 | 66 | 1011.3 |
| 20260502224024 | 17 | 244 | 12.9 | 29.0 | 0.00 | 0.00 | 0.00 | 64 | 1011.5 |
| 20260502223503 | 17 | 228 | 12.9 | 29.0 | 0.00 | 0.00 | 0.00 | 66 | 1011.6 |
| 20260502223024 | 17 | 222 | 12.9 | 25.7 | 0.00 | 0.00 | 0.00 | 66 | 1011.5 |
| 20260502222504 | 17 | 233 | 11.3 | 25.7 | 0.00 | 0.00 | 0.00 | 66 | 1011.6 |
| 20260502222004 | 17 | 231 | 14.5 | 29.0 | 0.00 | 0.00 | 0.00 | 68 | 1011.7 |
| 20260502221504 | 17 | 235 | 12.9 | 29.0 | 0.00 | 0.00 | 0.00 | 66 | 1011.8 |
| 20260502221004 | 17 | 237 | 12.9 | 24.1 | 0.00 | 0.00 | 0.00 | 67 | 1011.7 |
| 20260502220524 | 17 | 224 | 12.9 | 25.7 | 0.00 | 0.00 | 0.00 | 67 | 1011.7 |
| 20260502220004 | 17 | 237 | 14.5 | 25.7 | 0.00 | 0.00 | 0.00 | 70 | 1011.7 |
| 20260502215504 | 17 | 245 | 14.5 | 25.7 | 0.00 | 0.00 | 0.00 | 69 | 1011.9 |
| 20260502215004 | 17 | 238 | 11.3 | 22.5 | 0.00 | 0.00 | 0.00 | 69 | 1011.9 |
| 20260502214504 | 17 | 245 | 14.5 | 33.8 | 0.00 | 0.00 | 0.00 | 68 | 1011.9 |
| 20260502214004 | 17 | 246 | 14.5 | 33.8 | 0.00 | 0.00 | 0.00 | 67 | 1012.0 |
| 20260502213525 | 17 | 243 | 11.3 | 22.5 | 0.00 | 0.00 | 0.00 | 67 | 1011.9 |
| 20260502213004 | 17 | 242 | 12.9 | 25.7 | 0.00 | 0.00 | 0.00 | 68 | 1011.9 |
| 20260502212504 | 17 | 237 | 11.3 | 25.7 | 0.00 | 0.00 | 0.00 | 68 | 1011.9 |
| 20260502212025 | 17 | 238 | 11.3 | 24.1 | 0.00 | 0.00 | 0.00 | 68 | 1012.1 |
| 20260502211504 | 17 | 230 | 11.3 | 24.1 | 0.00 | 0.00 | 0.00 | 70 | 1012.1 |
| 20260502211004 | 17 | 224 | 12.9 | 27.4 | 0.00 | 0.00 | 0.00 | 70 | 1012.1 |
| 20260502210504 | 17 | 222 | 14.5 | 29.0 | 0.00 | 0.00 | 0.00 | 71 | 1012.2 |
| 20260502210004 | 17 | 216 | 12.9 | 29.0 | 0.00 | 0.00 | 0.00 | 70 | 1012.4 |
| 20260502205504 | 16 | 215 | 14.5 | 27.4 | 0.00 | 0.00 | 0.00 | 71 | 1012.3 |
| 20260502205003 | 16 | 220 | 12.9 | 27.4 | 0.00 | 0.00 | 0.00 | 72 | 1012.4 |
| 20260502204525 | 16 | 218 | 12.9 | 32.2 | 0.00 | 0.00 | 0.00 | 71 | 1012.5 |
| 20260502204004 | 17 | 215 | 14.5 | 32.2 | 0.00 | 0.00 | 0.00 | 72 | 1012.7 |
| 20260502203504 | 16 | 215 | 12.9 | 25.7 | 0.00 | 0.00 | 0.00 | 74 | 1012.7 |
| 20260502203025 | 16 | 206 | 12.9 | 22.5 | 0.00 | 0.00 | 0.00 | 74 | 1012.6 |
| 20260502202504 | 15 | 218 | 12.9 | 29.0 | 0.00 | 0.00 | 0.00 | 77 | 1012.8 |
| 20260502202004 | 15 | 225 | 14.5 | 29.0 | 0.00 | 0.00 | 0.00 | 75 | 1012.9 |
| 20260502201504 | 15 | 220 | 12.9 | 27.4 | 0.00 | 0.00 | 0.00 | 75 | 1012.9 |
| 20260502201004 | 15 | 218 | 12.9 | 30.6 | 0.00 | 0.00 | 0.00 | 76 | 1012.9 |
| 20260502200504 | 15 | 229 | 12.9 | 30.6 | 0.00 | 0.00 | 0.00 | 77 | 1012.9 |
| 20260502200003 | 15 | 239 | 11.3 | 24.1 | 0.00 | 0.00 | 0.00 | 78 | 1012.9 |
| 20260502195524 | 15 | 238 | 12.9 | 25.7 | 0.00 | 0.00 | 0.00 | 78 | 1012.9 |
| 20260502195003 | 15 | 242 | 12.9 | 25.7 | 0.00 | 0.00 | 0.00 | 78 | 1013.0 |
| 20260502194503 | 15 | 240 | 12.9 | 25.7 | 0.00 | 0.00 | 0.00 | 78 | 1012.9 |
| 20260502194003 | 15 | 231 | 12.9 | 27.4 | 0.00 | 0.00 | 0.00 | 80 | 1013.0 |
| 20260502193504 | 15 | 225 | 11.3 | 27.4 | 0.00 | 0.00 | 0.00 | 80 | 1013.0 |
| 20260502193004 | 15 | 233 | 12.9 | 24.1 | 0.00 | 0.00 | 0.00 | 79 | 1013.0 |
| 20260502192525 | 15 | 227 | 12.9 | 25.7 | 0.00 | 0.00 | 0.00 | 79 | 1013.0 |
| 20260502192004 | 15 | 221 | 11.3 | 25.7 | 0.00 | 0.00 | 0.00 | 80 | 1013.0 |
| 20260502191526 | 15 | 229 | 12.9 | 24.1 | 0.00 | 0.00 | 0.00 | 80 | 1013.0 |
| 20260502191004 | 15 | 230 | 11.3 | 24.1 | 0.00 | 0.00 | 0.00 | 81 | 1013.0 |
| 20260502190503 | 14 | 235 | 11.3 | 19.3 | 0.00 | 0.00 | 0.00 | 82 | 1013.1 |
| 20260502190004 | 14 | 238 | 12.9 | 29.0 | 0.00 | 0.00 | 0.00 | 82 | 1013.0 |
| 20260502185504 | 14 | 239 | 14.5 | 29.0 | 0.00 | 0.00 | 0.00 | 82 | 1013.2 |
| 20260502185004 | 14 | 236 | 12.9 | 24.1 | 0.00 | 0.00 | 0.00 | 82 | 1013.0 |
| 20260502184524 | 14 | 227 | 12.9 | 29.0 | 0.00 | 0.00 | 0.00 | 81 | 1013.0 |
| 20260502184003 | 14 | 223 | 12.9 | 29.0 | 0.00 | 0.00 | 0.00 | 81 | 1013.0 |
| 20260502183503 | 14 | 220 | 12.9 | 30.6 | 0.00 | 0.00 | 0.00 | 81 | 1013.0 |
| 20260502183003 | 14 | 224 | 14.5 | 30.6 | 0.00 | 0.00 | 0.00 | 81 | 1013.0 |
| 20260502182504 | 14 | 235 | 14.5 | 25.7 | 0.00 | 0.00 | 0.00 | 81 | 1013.0 |
| 20260502182004 | 14 | 229 | 12.9 | 25.7 | 0.00 | 0.00 | 0.00 | 81 | 1013.0 |
| 20260502181525 | 14 | 223 | 11.3 | 24.1 | 0.00 | 0.00 | 0.00 | 80 | 1012.9 |
| 20260502181004 | 15 | 230 | 12.9 | 25.7 | 0.00 | 0.00 | 0.00 | 80 | 1012.9 |